Regional Weather Roundup
Issued by NWS

Home | Current Version | Previous Version | Graphics & Text | Print | Product List | Glossary On
Versions: 1 2 3 4 5 6 7 8 9 10 11 12 13 14 15 16 17 18 19 20 21 22 23 24 25 26 27 28 29 30 31 32 33 34 35 36 37 38 39 40 41 42 43 44 45 46 47 48 49 50
000
ASUS43 KMPX 310510
RWRMN
WEATHER ROUNDUP FOR MINNESOTA
NATIONAL WEATHER SERVICE TWIN CITIES/CHANHASSEN MN
1100 PM CST FRI JAN 30 2015


NOTE: "FAIR" INDICATES FEW OR NO CLOUDS BELOW 12,000 FEET WITH NO
SIGNIFICANT WEATHER AND/OR OBSTRUCTIONS TO VISIBILITY. N/A MEANS
CURRENT SKY AND/OR WEATHER CONDITIONS ARE NOT AVAILABLE.

MNZ060>063-068>070-310600-
   Twin Cities Metro

CITY           SKY/WX    TMP DP  RH WIND       PRES   REMARKS
TWIN CITIES    FAIR      25  19  78 S3        30.17F
ST PAUL        PTCLDY    21  18  88 SE5       30.19F WCI  15
CRYSTAL        CLEAR     25  19  78 SE3       30.15F
BLAINE         CLOUDY    28  23  80 S5        30.16F WCI  23
LAKEVILLE      CLEAR     25  19  80 CALM      30.16F
EDEN PRAIRIE   CLEAR     24  19  81 SW7       30.15F WCI  16
SOUTH ST PAUL  CLEAR     23  19  84 SE3       30.17F
LAKE ELMO      CLOUDY    23  19  86 CALM      30.19F
$$
MNZ001>005-007-008-013>017-022>024-027-028-310600-
   Northwest Minnesota

CITY           SKY/WX    TMP DP  RH WIND       PRES   REMARKS
BEMIDJI        CLOUDY    24  19  84 W3        30.09S
HALLOCK        CLOUDY    18  14  86 N18G25    30.23R WCI   2
ROSEAU         CLOUDY    19  16  86 N10       30.16R WCI   8
WARROAD        CLOUDY    18  12  79 NW10      30.16R WCI   6
THIEF RVR FALL CLOUDY    21  16  79 NW15      30.16R WCI   8
CROOKSTON      CLOUDY    21  18  86 N20       30.20R WCI   6
FOSSTON        CLOUDY    21  19  93 NW12G20   30.13R WCI   9
DETROIT LAKES  FAIR      23  23 100 NW12      30.12S WCI  12
MOORHEAD       CLOUDY    27  27 100 N14       30.17S WCI  15
PARK RAPIDS    CLOUDY    21  18  88 CALM      30.09S
MAHNOMEN       CLOUDY    24  21  88 NW16      30.12S WCI  11
$$
MNZ006-009>011-018-025>026-310600-
   North Central Minnesota

CITY           SKY/WX    TMP DP  RH WIND       PRES   REMARKS
BAUDETTE       CLOUDY    17  11  77 CALM      30.11R
FLAG ISLAND    CLOUDY    14  10  85 NW12      30.13S WCI   0
INTL FALLS     CLOUDY    15   9  76 CALM      30.10S
WASKISH        CLOUDY    19  14  79 CALM      30.11S
BIG FORK       CLOUDY    19  12  73 CALM      30.10S
LONGVILLE      CLOUDY    23  18  80 CALM      30.10F
GRAND RAPIDS   CLOUDY    19  10  68 CALM      30.10S
CRANE LAKE     FLURRIES  14  10  85 CALM      30.12F
ORR            CLOUDY    16   9  73 CALM      30.07F
COOK           CLOUDY    16  10  79 CALM      30.10S
WALKER         CLOUDY    23  19  83 SW3       30.10S
$$
MNZ012-019>021-037-310600-
   Northeast Minnesota

CITY           SKY/WX    TMP DP  RH WIND       PRES   REMARKS
DULUTH         CLOUDY    18   8  65 SW7       30.11F WCI   9
ELY            FLURRIES  12   9  85 CALM      30.08F
HIBBING        CLOUDY    17   7  64 CALM      30.11F
EVELETH        FLURRIES  18  10  73 CALM      30.11F
DULUTH HARBOR  CLOUDY    19  10  68 CALM      30.18F
TWO HARBORS    CLOUDY    19   9  63 CALM      30.12F
SILVER BAY     FLURRIES  18   9  68 CALM      30.12F
GRAND MARAIS     N/A     18  13  80 W8        30.15F WCI   8
G MARAIS ARPRT LGT SNOW  10   7  85 S3        30.06F
$$
MNZ029>031-032-039>041-046>048-054>057-064-310600-
   West Central Minnesota

CITY           SKY/WX    TMP DP  RH WIND       PRES   REMARKS
FERGUS FALLS   CLEAR     25  21  86 N12       30.15F WCI  14
WHEATON        CLEAR     25  23  93 W7        30.16S WCI  17
MORRIS         CLEAR     23  21  93 W8        30.11F WCI  14
ALEXANDRIA     CLEAR     19  16  88 SW6       30.10F WCI  11
ELBOW LAKE     FAIR      21  20  97 W6        30.11F WCI  14
WADENA         CLEAR     16  16 100 CALM      30.09F FOG
GLENWOOD       CLEAR     21  19  93 SW5       30.11F FOG     WCI  15
APPLETON       CLEAR     23  21  93 SW6       30.13S FOG     WCI  16
BENSON         FOG       21  19  93 CALM      30.12F VSB 3/4
ORTONVILLE     CLEAR     28  25  86 NW5       30.13S WCI  23
MADISON        FAIR      32  30  93 W5        30.13F WCI  27
WILLMAR        FAIR      27  23  86 CALM      30.13F
$$
MNZ033>034-036-042>043-049>051-058-059-310600-
   Central Minnesota

CITY           SKY/WX    TMP DP  RH WIND       PRES   REMARKS
ST CLOUD       PTCLDY    22  18  85 S3        30.12F
SAUK CENTRE    FAIR      20  19  96 CALM      30.11F
PAYNESVILLE    CLEAR     21  20  98 CALM      30.13S
AITKIN         CLOUDY    27  19  74 CALM      30.10F
PINE RIVER     CLOUDY    25  19  80 CALM      30.13F
BRAINERD       CLOUDY    24  18  77 SW6       30.11F WCI  17
STAPLES        CLEAR     19  18  93 CALM      30.09F
LONG PRAIRIE   FAIR      19  19 100 CALM      30.11F
LITTLE FALLS   CLEAR     21  18  86 CALM      30.12F
LITCHFIELD     FAIR      25  23  93 CALM      30.13F
BUFFALO        CLEAR     24  20  87 CALM      30.15F
MAPLE LAKE     CLEAR     24  22  94 CALM      30.14F
$$
MNZ037-044-045-052-053-310600-
   East Central Minnesota

CITY           SKY/WX    TMP DP  RH WIND       PRES   REMARKS
PRINCETON      CLOUDY    28  21  74 S5        30.14F WCI  23
MORA           CLOUDY    23  16  74 CALM      30.16F
CAMBRIDGE      CLOUDY    27  18  69 S7        30.13F WCI  19
RUSH CITY      CLOUDY    22  16  78 S3        30.15F
MOOSE LAKE     CLOUDY    21  12  68 CALM      30.12F
HINCKLEY       CLOUDY    23  16  74 S3        30.14F
CLOQUET        CLOUDY    19  10  68 S3        30.12F
MCGREGOR       CLOUDY    23  18  80 S3        30.12F
$$
MNZ071>073-080-081-089-090-097-098-310600-
   Southwest Minnesota

CITY           SKY/WX    TMP DP  RH WIND       PRES   REMARKS
MONTEVIDEO     CLEAR     25  25 100 W3        30.14F
GRANITE FALLS  CLEAR     24  23  94 CALM      30.15S
CANBY          FAIR      32  28  86 SW10      30.13F WCI  24
MARSHALL       CLEAR     34  25  69 SW18      30.13S WCI  23
REDWOOD FALLS  CLEAR     26  23  88 CALM      30.14F
OLIVIA         CLEAR     23  23 100 S5        30.13F WCI  17
PIPESTONE      CLEAR     28  27  93 SW7       30.11F WCI  21
WINDOM         FAIR      30  27  86 SW8       30.14F WCI  23
WORTHINGTON    CLEAR     30  23  74 SW18      30.14S WCI  18
JACKSON        CLEAR     30  25  80 SW13      30.15F WCI  20
TRACY          CLEAR     32  28  86 SW13      30.12F WCI  22
SLAYTON        CLEAR     30  26  86 SW17      30.12F WCI  18
$$
MNZ065>067-074>077-082>085-091>093-310600-
   South Central Minnesota

CITY           SKY/WX    TMP DP  RH WIND       PRES   REMARKS
MANKATO        CLEAR     25  19  80 S8        30.16F WCI  16
NEW ULM        CLEAR     25  21  86 CALM      30.15F
ST JAMES       CLEAR     28  25  86 S8        30.16F WCI  20
FAIRMONT       CLEAR     27  21  80 S7        30.16F WCI  19
GLENCOE        CLEAR     26  24  93 S5        30.14F WCI  20
FARIBAULT      CLEAR     25  19  80 S5        30.17F WCI  19
OWATONNA       CLEAR     25  19  80 S10       30.16F WCI  15
WASECA         CLEAR     25  21  86 S10       30.18F WCI  15
ALBERT LEA     CLEAR     27  19  74 S8        30.18F WCI  18
$$
MNZ078>079-086>088-094>096-310600-
   Southeast Minnesota

CITY           SKY/WX    TMP DP  RH WIND       PRES   REMARKS
ROCHESTER      CLEAR     20  13  74 S14       30.18F WCI   7
RED WING       CLEAR     19  14  79 E3        30.19F
STANTON        CLEAR     26  19  77 S5        30.16F WCI  20
DODGE CENTER   PTCLDY    23  18  80 S16       30.16F WCI  10
WINONA         CLEAR     28  14  54 SW5       30.24F WCI  23
AUSTIN         CLEAR     21  18  86 S10       30.20F WCI  10
PRESTON        PTCLDY    20  13  74 S13       30.21F WCI   7
$$
ABBREVIATIONS USED IN REMARKS
   TC - TEMPERATURES IN CELSIUS
  WCI - WIND CHILL INDEX
   HX - HEAT INDEX
  VSB - VISIBILITY
$$



USA.gov is the U.S. government's official web portal to all federal, state and local government web resources and services.